Regional Weather Roundup
Issued by NWS

Home | Current Version | Previous Version | Text Only | Print | Product List | Glossary Off
Versions: 1 2 3 4 5 6 7 8 9 10 11 12 13 14 15 16 17 18 19 20 21 22 23 24 25 26 27 28 29 30 31 32 33 34 35 36 37 38 39 40 41 42 43 44 45 46 47 48 49 50

000
ASUS43 KLOT 041412
RWRIL

ILLINOIS REGIONAL WEATHER ROUNDUP
NATIONAL WEATHER SERVICE CHICAGO/ROMEOVILLE IL
800 AM CST SUN DEC 04 2016

NOTE: "FAIR" INDICATES FEW OR NO CLOUDS BELOW 12,000 FEET WITH NO
SIGNIFICANT WEATHER AND/OR OBSTRUCTIONS TO VISIBILITY.

* THESE STATIONS ARE NOT UNDER NWS QUALITY CONTROL. THEY ALSO MAY NOT
  REPORT WEATHER SUCH AS PRECIPITATION OR FOG.

ILZ001-002-007-009-015-016-024-041500-
NORTHWEST ILLINOIS

CITY           SKY/WX    TMP DP  RH WIND       PRES   REMARKS
MOLINE         SNOW      32  30  92 E9        30.07F VSB 1/2 WCI  24
STERLING*      SNOW      30  30 100 E8        30.12S VSB 1/4 WCI  22
SAVANNA*       LGT SNOW  31  30  96 SE9       30.10F VSB 3/4 WCI  23
$$

ILZ003-004-008-010-011-017-018-041500-
NORTH CENTRAL ILLINOIS

CITY           SKY/WX    TMP DP  RH WIND       PRES   REMARKS
ROCKFORD       LGT SNOW  31  28  89 SE8       30.13F VSB 3/4 WCI  23
FREEPORT*      LGT SNOW  30  29  95 SE9       30.12F VSB 1   WCI  21
ROCHELLE*      LGT SNOW  30  29  96 E8        30.12F VSB 3/4 WCI  23
DE KALB*       LGT SNOW  31  29  92 E7        30.13F VSB 1   WCI  24
$$

ILZ005-006-012>014-019>023-041500-
NORTHEAST ILLINOIS

CITY           SKY/WX    TMP DP  RH WIND       PRES   REMARKS
CHICAGO-OHARE  CLOUDY    33  26  75 E3        30.15F
CHICAGO-MIDWAY CLOUDY    33  24  69 E6        30.16F WCI  28
AURORA         CLOUDY    33  27  78 E8        30.14F WCI  26
LANSING*       CLOUDY    32  29  90 E7        30.16F WCI  25
JOLIET*        CLOUDY    33  29  85 E6        30.14F WCI  28
WAUKEGAN       CLOUDY    32  27  81 CALM      30.14F
DUPAGE AIRPORT CLOUDY    32  25  75 E5        30.14F WCI  27
KANKAKEE*      CLOUDY    32  28  86 E7        30.15F WCI  26
WHEELING       CLOUDY    33  25  72 CALM      30.17F
MORRIS*        CLOUDY    32  28  86 CALM      30.13F
ROMEOVILLE*    CLOUDY    31  30  94 E5        30.14F WCI  27
NORTHERLY ISL    N/A     33  25  72 S2          N/A
$$

LMZ740>746-041500-
SOUTHERN LAKE MICHIGAN

STATION/POSITION SKY/WX   TEMP    WIND        PRES    VSBY  WAVE
                          AIR SEA DIR/SP/G                  HT/PER
                          (F)     (DEG/KT/KT) (MB)    (MI)  (FT/S)
SOUTHERN BUOY              37 48  190/  4/  6 1022.1F         0
HARRISON CRIB              35     190/  8/  9   N/A
BURNHAM HARBOR             33     180/  3/  5   N/A
CALUMET HARBOR             32     150/  4/  6 1021.0R
BURNS HARBOR               33     160/  5/ 10 1022.0F
$$

ILZ025>027-034>036-040-047-049-050-058-095>099-041500-
WEST-CENTRAL ILLINOIS

CITY           SKY/WX    TMP DP  RH WIND       PRES   REMARKS
QUINCY         LGT SNOW  33  33 100 E5        30.03F VSB 3/4 WCI  29
GALESBURG*     LGT SNOW  32  31  99 E6        30.07F VSB 3/4 WCI  26
MACOMB*        MIX PCPN  32  32 100 E7        30.08F WCI  26
JACKSONVILLE*  LGT SNOW  34  32  94 E8        30.05F WCI  27
PITTSFIELD*    RAIN      34  34  98 NE6       30.04F WCI  29
$$

ILZ028>032-037-038-041>044-048-051>054-059>061-041500-
CENTRAL ILLINOIS

CITY           SKY/WX    TMP DP  RH WIND       PRES   REMARKS
PONTIAC        CLOUDY    33  32  98 E9        30.13F WCI  25
BLOOMINGTON    LGT SNOW  32  29  88 E7        30.09F FOG     WCI  26
DECATUR        LGT SNOW N/A N/A N/A E10       30.08F
PEORIA         LGT SNOW  33  31  92 E8        30.09F VSB 1   WCI  26
LACON*         LGT SNOW  31  30  95 E3        30.11S
LINCOLN*       RAIN      34  32  92 E9        30.08F WCI  27
SPRINGFIELD    LGT SNOW  34  32  92 E8        30.07F FOG     WCI  27
TAYLORVILLE    CLOUDY    34  33  95 E8        30.06F FOG     WCI  27
$$

ILZ033-039-045-046-055>057-062-063-041500-
EAST-CENTRAL ILLINOIS

CITY           SKY/WX    TMP DP  RH WIND       PRES   REMARKS
CHAMPAIGN      FLURRIES  34  29  82 E10       30.10F WCI  26
RANTOUL*       CLOUDY    35  32  90 E9        30.11F WCI  27
MATTOON        CLOUDY    35  30  82 E5        30.07F WCI  31
PARIS*         LGT RAIN  34  32  92 E7        30.11F WCI  28
$$

ILZ079-100>102-041500-
SOUTHWEST ILLINOIS

CITY           SKY/WX    TMP DP  RH WIND       PRES   REMARKS
ALTON          DRIZZLE   36  34  93 E8        30.03F WCI  29
BELLEVILLE     MOCLDY    37  37  99 E3        30.01F
CAHOKIA*       CLOUDY    38  34  85 E7        30.01F WCI  33
SPARTA*        CLOUDY    37  35  92 E7        30.02F WCI  32
$$

ILZ064>066-069>071-074>076-080>082-084>086-088>090-092>094-041500-
SOUTH-CENTRAL ILLINOIS

CITY           SKY/WX    TMP DP  RH WIND       PRES   REMARKS
CARBONDALE     CLOUDY    39  37  92 E12       30.00F WCI  32
CAIRO*         CLOUDY    40  38  95 E6        30.02F FOG
EFFINGHAM*     CLOUDY    37  35  92 NE8       30.06F WCI  31
MARION         LGT RAIN  39  39 100 E6        30.03F WCI  35
CENTRALIA*     CLOUDY    38  36  90 E8        30.01F WCI  32
SALEM*         CLOUDY    38  35  86 E6        30.03F WCI  34
METROPOLIS*    CLOUDY    40  38  93 E3        30.03F FOG
$$

ILZ067-068-072-073-078-083-087-091-041500-
SOUTHEAST ILLINOIS

CITY           SKY/WX    TMP DP  RH WIND       PRES   REMARKS
LAWRENCEVILLE  CLOUDY    38  33  82 E10       30.08F WCI  31
FLORA*         CLOUDY    38  36  90 E9        30.05F WCI  32
FAIRFIELD*     CLOUDY    38  35  90 E5        30.04F WCI  34
HARRISBURG*    CLOUDY    40  36  87 E8        30.04F
ROBINSON*      CLOUDY    37  33  87 E7        30.10F WCI  31
CARMI*         CLOUDY    39  37  90 E8        30.04F WCI  34
$$

ABBREVIATIONS USED IN REMARKS
   TC - TEMPERATURE IN CELSIUS
  WCI - WIND CHILL INDEX
   HX - HEAT INDEX
  VSB - VISIBILITY
$$




USA.gov is the U.S. government's official web portal to all federal, state and local government web resources and services.